When you browse on this site, cookies collect data to enhance your experience and personalize the content and advertising you see.
Visit our Privacy Policy to learn more. By continuing to use the site, you agree to this use of cookies and data.
  • în România
  • Lista ţărilor
  • Pe 7 zile
  • Temperatura apei
  • Hartă satelitară
  • Meteo pe hartă
  • Widget-uri
  • user-avatar
    Intrare

    Meteo pe oră la Krutye Slancy

    Astăzi, 14 Decembrie, Vineri

    Timp Temperatura Precipitaţii Vânt Presiune Umiditate
    00:00 -3°C° 0 mm 2 m/s 752 mmHg 96%
    01:00 -3°C° 0.1 mm 2 m/s 752 mmHg 96%
    02:00 -3°C° 0.1 mm 2 m/s 752 mmHg 96%
    03:00 -4°C° 0.1 mm 3 m/s 752 mmHg 96%
    04:00 -4°C° 0.3 mm 3 m/s 752 mmHg 96%
    05:00 -4°C° 0.3 mm 3 m/s 752 mmHg 96%
    06:00 -5°C° 0.3 mm 3 m/s 752 mmHg 96%
    07:00 -5°C° 0.4 mm 4 m/s 752 mmHg 96%
    08:00 -5°C° 0.4 mm 4 m/s 752 mmHg 96%
    09:00 -5°C° 0.4 mm 4 m/s 752 mmHg 95%
    10:00 -5°C° 0.4 mm 4 m/s 752 mmHg 95%
    11:00 -5°C° 0.4 mm 4 m/s 752 mmHg 94%
    12:00 -5°C° 0.4 mm 4 m/s 752 mmHg 94%
    13:00 -5°C° 0.4 mm 4 m/s 752 mmHg 94%
    14:00 -5°C° 0.4 mm 4 m/s 752 mmHg 94%
    15:00 -5°C° 0.4 mm 4 m/s 752 mmHg 93%
    16:00 -5°C° 0.3 mm 4 m/s 752 mmHg 93%
    17:00 -7°C° 0.3 mm 4 m/s 752 mmHg 93%
    18:00 -7°C° 0.3 mm 4 m/s 752 mmHg 93%
    19:00 -7°C° 0.2 mm 4 m/s 752 mmHg 93%
    20:00 -7°C° 0.2 mm 4 m/s 753 mmHg 93%
    21:00 -7°C° 0.2 mm 4 m/s 753 mmHg 93%
    22:00 -7°C° 0.2 mm 4 m/s 753 mmHg 93%
    23:00 -7°C° 0.2 mm 4 m/s 753 mmHg 94%

    Mâine, 15 Decembrie, Sâmbătă

    Timp Temperatura Precipitaţii Vânt Presiune Umiditate
    00:00 -7°C° 0.2 mm 4 m/s 753 mmHg 94%
    01:00 -8°C° 0.1 mm 4 m/s 753 mmHg 94%
    02:00 -8°C° 0.1 mm 4 m/s 754 mmHg 94%
    03:00 -7°C° 0.1 mm 3 m/s 754 mmHg 94%
    04:00 -8°C° 0.1 mm 4 m/s 754 mmHg 94%
    05:00 -8°C° 0.1 mm 4 m/s 754 mmHg 94%
    06:00 -8°C° 0.1 mm 4 m/s 754 mmHg 94%
    07:00 -8°C° 0.1 mm 4 m/s 755 mmHg 94%
    08:00 -7°C° 0.1 mm 4 m/s 755 mmHg 94%
    09:00 -7°C° 0.1 mm 4 m/s 756 mmHg 93%
    10:00 -7°C° 0 mm 4 m/s 756 mmHg 93%
    11:00 -7°C° 0 mm 4 m/s 756 mmHg 92%
    12:00 -7°C° 0 mm 4 m/s 757 mmHg 92%
    13:00 -7°C° 0 mm 4 m/s 757 mmHg 92%
    14:00 -7°C° 0 mm 4 m/s 757 mmHg 91%
    15:00 -7°C° 0 mm 4 m/s 758 mmHg 91%
    16:00 -8°C° 0 mm 4 m/s 758 mmHg 92%
    17:00 -8°C° 0 mm 4 m/s 758 mmHg 92%
    18:00 -8°C° 0 mm 4 m/s 759 mmHg 92%
    19:00 -8°C° 0 mm 4 m/s 759 mmHg 92%
    20:00 -9°C° 0 mm 4 m/s 760 mmHg 92%
    21:00 -9°C° 0 mm 4 m/s 760 mmHg 93%
    22:00 -8°C° 0 mm 3 m/s 760 mmHg 93%
    23:00 -8°C° 0 mm 3 m/s 761 mmHg 93%

    Poimâine, 16 Decembrie, Duminică

    Timp Temperatura Precipitaţii Vânt Presiune Umiditate
    00:00 -8°C° 0 mm 3 m/s 761 mmHg 93%
    01:00 -9°C° 0 mm 3 m/s 761 mmHg 94%
    02:00 -12°C° 0 mm 3 m/s 762 mmHg 94%
    03:00 -13°C° 0 mm 3 m/s 762 mmHg 94%
    04:00 -14°C° 0 mm 3 m/s 762 mmHg 92%
    05:00 -15°C° 0 mm 3 m/s 762 mmHg 91%
    06:00 -17°C° 0 mm 3 m/s 762 mmHg 89%
    07:00 -17°C° 0 mm 3 m/s 763 mmHg 89%
    08:00 -17°C° 0 mm 3 m/s 763 mmHg 88%
    09:00 -16°C° 0 mm 2 m/s 763 mmHg 88%
    10:00 -15°C° 0 mm 2 m/s 763 mmHg 88%
    11:00 -14°C° 0 mm 2 m/s 763 mmHg 88%
    12:00 -13°C° 0 mm 2 m/s 764 mmHg 88%
    13:00 -13°C° 0 mm 2 m/s 764 mmHg 88%
    14:00 -13°C° 0 mm 2 m/s 764 mmHg 89%
    15:00 -14°C° 0 mm 2 m/s 763 mmHg 89%
    16:00 -14°C° 0 mm 2 m/s 764 mmHg 90%
    17:00 -15°C° 0 mm 2 m/s 764 mmHg 91%
    18:00 -15°C° 0 mm 2 m/s 764 mmHg 92%
    19:00 -15°C° 0 mm 2 m/s 764 mmHg 93%
    20:00 -15°C° 0 mm 2 m/s 764 mmHg 94%
    21:00 -15°C° 0 mm 2 m/s 764 mmHg 95%
    22:00 -15°C° 0 mm 2 m/s 764 mmHg 95%
    23:00 -14°C° 0 mm 2 m/s 764 mmHg 96%

    17 Decembrie, Luni

    Timp Temperatura Precipitaţii Vânt Presiune Umiditate
    00:00 -13°C° 0 mm 2 m/s 764 mmHg 96%
    01:00 -13°C° 0 mm 2 m/s 764 mmHg 96%
    02:00 -12°C° 0 mm 2 m/s 764 mmHg 96%
    03:00 -12°C° 0 mm 2 m/s 764 mmHg 96%
    04:00 -12°C° 0 mm 2 m/s 764 mmHg 96%
    05:00 -12°C° 0 mm 2 m/s 764 mmHg 95%
    06:00 -10°C° 0 mm 2 m/s 764 mmHg 95%
    07:00 -10°C° 0 mm 2 m/s 764 mmHg 95%
    08:00 -10°C° 0 mm 2 m/s 764 mmHg 95%
    09:00 -10°C° 0 mm 2 m/s 764 mmHg 96%
    10:00 -9°C° 0 mm 2 m/s 764 mmHg 95%
    11:00 -9°C° 0 mm 2 m/s 764 mmHg 95%
    12:00 -9°C° 0 mm 2 m/s 764 mmHg 94%
    13:00 -9°C° 0 mm 2 m/s 764 mmHg 95%
    14:00 -8°C° 0 mm 2 m/s 763 mmHg 95%
    15:00 -8°C° 0 mm 2 m/s 763 mmHg 95%
    16:00 -9°C° 0 mm 2 m/s 763 mmHg 96%
    17:00 -9°C° 0 mm 2 m/s 763 mmHg 96%
    18:00 -9°C° 0 mm 2 m/s 763 mmHg 96%
    19:00 -9°C° 0 mm 2 m/s 763 mmHg 96%
    20:00 -9°C° 0 mm 2 m/s 763 mmHg 96%
    21:00 -9°C° 0 mm 2 m/s 763 mmHg 96%
    22:00 -8°C° 0 mm 2 m/s 763 mmHg 96%
    23:00 -8°C° 0 mm 2 m/s 763 mmHg 96%

    18 Decembrie, Marţi

    Timp Temperatura Precipitaţii Vânt Presiune Umiditate
    00:00 -8°C° 0 mm 2 m/s 763 mmHg 96%
    01:00 -8°C° 0 mm 2 m/s 763 mmHg 96%
    02:00 -8°C° 0 mm 2 m/s 763 mmHg 96%
    03:00 -8°C° 0 mm 2 m/s 763 mmHg 96%
    04:00 -8°C° 0 mm 2 m/s 763 mmHg 96%
    05:00 -8°C° 0 mm 2 m/s 763 mmHg 96%
    06:00 -8°C° 0 mm 2 m/s 763 mmHg 96%
    07:00 -8°C° 0 mm 2 m/s 763 mmHg 96%
    08:00 -8°C° 0 mm 2 m/s 763 mmHg 96%
    09:00 -8°C° 0 mm 2 m/s 763 mmHg 96%
    10:00 -8°C° 0 mm 2 m/s 763 mmHg 95%
    11:00 -8°C° 0 mm 2 m/s 763 mmHg 94%
    12:00 -7°C° 0 mm 2 m/s 763 mmHg 93%
    13:00 -7°C° 0 mm 2 m/s 763 mmHg 93%
    14:00 -7°C° 0 mm 2 m/s 763 mmHg 93%
    15:00 -7°C° 0 mm 2 m/s 763 mmHg 93%
    16:00 -7°C° 0 mm 2 m/s 763 mmHg 94%
    17:00 -8°C° 0 mm 2 m/s 763 mmHg 95%
    18:00 -8°C° 0 mm 2 m/s 763 mmHg 95%
    19:00 -9°C° 0 mm 2 m/s 763 mmHg 95%
    20:00 -9°C° 0 mm 2 m/s 763 mmHg 95%
    21:00 -9°C° 0 mm 2 m/s 763 mmHg 95%
    22:00 -9°C° 0 mm 2 m/s 763 mmHg 95%
    23:00 -10°C° 0 mm 2 m/s 763 mmHg 95%

    19 Decembrie, Miercuri

    Timp Temperatura Precipitaţii Vânt Presiune Umiditate
    00:00 -10°C° 0 mm 2 m/s 763 mmHg 95%
    01:00 -10°C° 0 mm 2 m/s 763 mmHg 96%
    02:00 -10°C° 0 mm 2 m/s 763 mmHg 96%
    03:00 -10°C° 0 mm 2 m/s 764 mmHg 96%
    04:00 -10°C° 0 mm 2 m/s 763 mmHg 96%
    05:00 -12°C° 0 mm 2 m/s 763 mmHg 96%
    06:00 -12°C° 0 mm 2 m/s 763 mmHg 96%
    07:00 -12°C° 0 mm 2 m/s 764 mmHg 96%
    08:00 -13°C° 0 mm 2 m/s 764 mmHg 96%
    09:00 -13°C° 0 mm 2 m/s 764 mmHg 96%
    10:00 -13°C° 0 mm 2 m/s 764 mmHg 95%
    11:00 -12°C° 0 mm 2 m/s 764 mmHg 94%
    12:00 -12°C° 0 mm 2 m/s 764 mmHg 94%
    13:00 -12°C° 0 mm 2 m/s 764 mmHg 94%
    14:00 -12°C° 0 mm 2 m/s 764 mmHg 94%
    15:00 -12°C° 0 mm 2 m/s 764 mmHg 95%
    16:00 -12°C° 0 mm 2 m/s 764 mmHg 95%
    17:00 -13°C° 0 mm 2 m/s 764 mmHg 95%
    18:00 -13°C° 0 mm 2 m/s 764 mmHg 95%
    19:00 -13°C° 0 mm 2 m/s 764 mmHg 95%
    20:00 -13°C° 0 mm 2 m/s 764 mmHg 95%
    21:00 -13°C° 0 mm 2 m/s 764 mmHg 95%
    22:00 -13°C° 0 mm 2 m/s 764 mmHg 95%
    23:00 -13°C° 0 mm 2 m/s 764 mmHg 96%
    Arată mai mult